Hourly Data Report for October 08, 2013

All times are specified in Local Standard Time (LST). Add 1 hour to adjust for Daylight Saving Time where and when it is observed.

PETAWAWA AWOS 2
ONTARIO

45°57'00.000" N
77°19'00.000" W
130.10 m
6106396
71625
YWA

Download Data

Hourly Data (October 2013)
Hourly Data Report for October 8, 2013
Temp Definition
°C
Dew Point Temp Definition
°C
Rel Hum Definition
%
Wind Dir Definition
10's deg

Wind Spd Definition
km/h
Visibility Definition
km
Stn Press Definition
kPa
Hmdx Definition


Wind Chill Definition


Weather Definition


TIME
00:00 7.3 3.9 79 26 17 15.0 99.90      
01:00 6.8 4.0 82 26 11 15.0 100.02      
02:00 6.2 4.3 88 24 7 15.0 100.12      
03:00 5.7 3.8 88 25 7 15.0 100.24      
04:00 5.1 3.0 86 25 7 15.0 100.35      
05:00 2.5 2.0 96 24 4 15.0 100.48      
06:00 2.0 2.0 100   0 15.0 100.60      
07:00 1.6 1.4 99 21 4 15.0 100.71      
08:00 5.8 4.1 89   0 15.0 100.83      
09:00 8.1 4.8 80   0 15.0 100.89      
10:00 9.7 5.3 74 1 4 15.0 100.92      
11:00 11.6 4.0 60 30 11 15.0 100.92      
12:00 12.9 3.6 53 27 13 15.0 100.95      
13:00 13.9 4.8 54 25 9 15.0 100.93      
14:00 14.9 4.1 48   0 15.0 100.90      
15:00 15.3 4.0 47 26 4 15.0 100.91      
16:00 15.6 3.6 45 25 7 15.0 100.94      
17:00 14.2 5.0 54   0 15.0 100.98      
18:00 9.9 5.9 76   0 15.0 101.02      
19:00 8.1 6.6 90   0 15.0 101.06      
20:00 6.1 5.4 95 20 4 15.0 101.08      
21:00 5.4 4.8 96   0 15.0 101.10      
22:00 6.4 5.6 95   0 15.0 101.13      
23:00 4.2 3.4 95   0 15.0 101.14      

Notes on Data Quality.

Legend

  • E = Estimated
  • M = Missing
  • NA = Not Available
  • ‡ = Partner data that is not subject to review by the National Climate Archives
Date modified: